Regional Weather Roundup
Issued by NWS

Home | Current Version | Previous Version | Text Only | Print | Product List | Glossary On
Versions: 1 2 3 4 5 6 7 8 9 10 11 12 13 14 15 16 17 18 19 20 21 22 23 24 25 26 27 28 29 30 31 32 33 34 35 36 37 38 39 40 41 42 43 44 45 46 47 48 49 50
000
ASUS42 KTBW 271710
RWRFL
FLORIDA REGIONAL WEATHER ROUNDUP
NATIONAL WEATHER SERVICE TAMPA BAY RUSKIN FL
100 PM EDT WED AUG 27 2014

NOTE: "FAIR" INDICATES FEW OR NO CLOUDS BELOW 12,000 FEET WITH NO
SIGNIFICANT WEATHER AND/OR OBSTRUCTIONS TO VISIBILITY.


FLZ001>010-012>015-112-114-115-271800-
PANHANDLE FLORIDA

CITY           SKY/WX    TMP DP  RH WIND       PRES   REMARKS
PENSACOLA      MOSUNNY   86  71  60 E14       30.05F
PENSACOLA NAS  PTSUNNY   88  75  65 SE13      30.05S HX  97
MILTON NAS     MOSUNNY   89  68  49 VRB7      30.05F
CRESTVIEW      SUNNY     93  66  40 NE10      30.07F HX  96
DUKE FIELD     MOSUNNY   88  68  51 E7        30.05F
VALPARAISO     MOSUNNY   88  68  52 SE7       30.06S
MARY ESTHER    MOSUNNY   87  66  48 SE12      30.05S
TRI COUNTY     FAIR      89  67  47 VRB5      30.06F
PANAMA CITY    PTSUNNY   90  67  46 VRB5      30.04F
TYNDALL AFB    SUNNY     88  69  52 E7        30.05F
APALACHICOLA   SUNNY     87  67  51 E12       30.03F

STATION/POSITION SKY/WX   TEMP    WIND        PRES    WAVE   SWELL
                          AIR SEA DIR/SP/G            HT/PER HT/PER
                          (F)     (DEG/KT/KT) (MB)    (FT/S) (FT/S)
30.1N   87.6W              84 85  100/ 12/ 16 1017.4R   4/ 5   2/ 6
29.2N   88.2W              84 86   80/ 14/ 16 1016.6F
28.8N   86.0W              84 87   90/ 14/ 16 1016.2S   5/ 7   3/ 7
PANAMA CITY BEAC           86 85   70/  3/ 10 1017.4F
CAPE SAN BLAS    NOT AVBL
TOWER C                    81      70/ 13/ 13 1016.9F
28.5N   84.5W              83 86   90/ 16/ 17 1016.0R   4/ 6

$$
FLZ011-016>038-118-127-128-134-139-239-271800-
NORTH FLORIDA

CITY           SKY/WX    TMP DP  RH WIND       PRES   REMARKS
MARIANNA       PTSUNNY   89  68  49 E6        30.04F
TALLAHASSEE    PTSUNNY   89  64  43 NE7       30.04F
PERRY          MOSUNNY   86  61  42 NE14      30.03F
CROSS CITY       N/A     89  66  46 NE8       30.02F
LAKE CITY      FAIR      86  63  45 N10       30.03F
GAINESVILLE    MOSUNNY   87  68  52 N10       30.02F
MAYPORT NAS    MOSUNNY   85  71  63 NE15      30.02F
JACKSONVILLE   MOSUNNY   87  65  47 NE5       30.01F
JAX NAS        MOSUNNY   90  66  45 N10       30.02F
JAX CRAIG      MOSUNNY   84  69  60 N13       30.02F
JAX CECIL      PTSUNNY   84  68  58 N6        30.03S
FERNANDINA BEA FAIR      84  64  51 NE13      30.01F
ST AUGUSTINE   CLOUDY    82  72  69 NE13      30.02F

STATION/POSITION SKY/WX   TEMP    WIND        PRES    WAVE   SWELL
                          AIR SEA DIR/SP/G            HT/PER HT/PER
                          (F)     (DEG/KT/KT) (MB)    (FT/S) (FT/S)
SHELL POINT                83     130/  5/  6   N/A
KEATON BEACH               85      10/  5/  9 1016.8F
CEDAR KEY                  82      70/  7/  8 1017.0F
FERNANDINA                 82 82   40/  7/ 12 1016.4S
30.7N   81.3W                 83                N/A     5/11   2/11
MAYPORT                    81 83   30/ 12/ 16   N/A
31.4N   80.9W              78 84   20/ 14/ 17 1016.7F   4/ 6   3/10
ST AUGUSTINE               81      30/ 12/ 14 1017.2F

$$
FLZ040-043>046-052-053-057-058-063-144-271800-
INTERIOR CENTRAL FLORIDA

CITY           SKY/WX    TMP DP  RH WIND       PRES   REMARKS
OCALA          MOSUNNY   88  63  42 N9        30.01F
LEESBURG       MOSUNNY   90  69  50 E6        30.01F
SANFORD        PTSUNNY   88  70  55 N8        29.99F
ORLANDO EXEC   PTSUNNY   89  70  53 NE10      29.99F
ORLANDO INTL   PTSUNNY   87  71  58 NE8       29.98F
KISSIMMEE      PTSUNNY   90  72  55 N12       29.99F HX  96
WINTER HAVEN   PTSUNNY   89  69  51 N12G20    30.00F
LAKELAND       PTSUNNY   90  68  48 E8        29.99F
BARTOW         MOSUNNY   88  70  55 N8        30.00S
OKEECHOBEE     SUNNY     88  70  55 MISG      29.97F

$$
FLZ041-047-054-059-064-141-147-271800-
EAST CENTRAL FLORIDA

CITY           SKY/WX    TMP DP  RH WIND       PRES   REMARKS
ORMOND BEACH   MOSUNNY   82  70  65 NE12G20   30.01F
DAYTONA BEACH  PTSUNNY   87  70  56 N13G22    30.01S
DELAND         MOSUNNY   84  70  61 NE10      30.01F
NEW SMYRNA BEA   N/A     86  72  62 N15       30.01S
JFK SPACE CTR  MOSUNNY   86  74  67 NE10      29.99S
TITUSVILLE     MOSUNNY   88  73  62 N14       29.99S HX  96
CAPE CANAVERAL SUNNY     87  73  62 NE12      29.98S HX  95
PATRICK AFB    SUNNY     87  74  64 NE8       29.98S HX  95
MELBOURNE      MOSUNNY   88  70  55 E8        29.98R
VERO BEACH     MOSUNNY   87  72  60 NE9       29.97F
FT PIERCE      SUNNY     89  71  55 VRB6      29.97S HX  95
STUART         MOSUNNY   84  73  70 N8        29.98F

STATION/POSITION SKY/WX   TEMP    WIND        PRES    WAVE   SWELL
                          AIR SEA DIR/SP/G            HT/PER HT/PER
                          (F)     (DEG/KT/KT) (MB)    (FT/S) (FT/S)
28.5N   80.2W              82 83  350/ 10/ 10 1015.5R
28.9N   78.5W              83 85  340/  6/  8 1014.7F   8/10   8/10
TRIDENT PIER               84 83  340/  8/ 11 1015.0R
28.4N   80.5W                 83                N/A     3/10   2/11
27.6N   80.2W                 83                N/A     5/10   2/11

$$
FLZ050-056-061-142-242-148-248-149-249-151-251-155-255-
160-260-271800-
WEST CENTRAL FLORIDA

CITY           SKY/WX    TMP DP  RH WIND       PRES   REMARKS
CRYSTAL RIVER  PTSUNNY   88  64  45 NE3       30.00F
INVERNESS      FAIR      88  52  29 NE7       30.00F
BROOKSVILLE    MOSUNNY   89  69  51 NE7       30.00F
ZEPHYRHILLS    FAIR      88  66  48 NE7       30.00F
CLEARWATER     MOSUNNY   89  71  55 E5        29.99S HX  95
TAMPA INTL     MOSUNNY   88  67  49 CALM      29.99F
TAMPA EXEC     MOSUNNY   90  68  48 NE5       29.99F
MACDILL AFB    SUNNY     90  74  58 E7        29.99F HX  99
ST PETERSBURG  SUNNY     88  70  55 E6        29.97F
SARASOTA       MOSUNNY   90  67  46 E8        29.97S
VENICE           N/A    N/A N/A N/A MISG        N/A

STATION/POSITION SKY/WX   TEMP    WIND        PRES    WAVE   SWELL
                          AIR SEA DIR/SP/G            HT/PER HT/PER
                          (F)     (DEG/KT/KT) (MB)    (FT/S) (FT/S)
CEDAR KEY                  82      70/  7/  8 1017.0F
28.5N   84.5W              83 86   90/ 16/ 17 1016.0R   4/ 6
27.3N   84.3W                 87                N/A     4/ 6
CLEARWATER BEACH           86 85   30/  3/  8 1015.3F
MIDDLE TAMPA BAY           83      30/ 10/ 12 1015.7F
VENICE                     86 87   60/  8/ 11 1014.6F

$$
FLZ066-069-070-075>078-162-262-165-265-271800-
SOUTHWEST FLORIDA AND KEYS

CITY           SKY/WX    TMP DP  RH WIND       PRES   REMARKS
PUNTA GORDA    MOSUNNY   90  65  43 NE6       29.99S
FT MYERS       MOSUNNY   88  65  46 CALM      29.96S
SOUTHWEST INTL MOSUNNY   88  67  49 VRB7      29.96R
NAPLES         MOSUNNY   89  72  56 E10       29.94F HX  96
MARCO ISLAND   MOSUNNY   91  72  52 E6        29.95S HX  98
MARATHON       SUNNY     90  73  57 E12       29.93S HX  98
KEY WEST NAS   PTSUNNY   84  78  82 E14       29.93S HX  95
KEY WEST INTL  PTSUNNY   84  76  76 NE9       29.94S

STATION/POSITION SKY/WX   TEMP    WIND        PRES    WAVE   SWELL
                          AIR SEA DIR/SP/G            HT/PER HT/PER
                          (F)     (DEG/KT/KT) (MB)    (FT/S) (FT/S)
VENICE                     86 87   60/  8/ 11 1014.6F
NAPLES                     87      50/  5/ 10 1014.8S
DRY TORTUGAS               85      80/ 17/ 19 1013.4S
NW FL BAY                  86      90/ 11/ 13 1014.1R
SAND KEY                   85     120/ 15/ 17 1013.4F
SOMBRERO KEY               86      90/ 14/ 16 1014.3S
LONG KEY                   85 86   90/ 12/ 15 1014.6F
MOLASSES REEF              85 88   90/ 10/ 12 1014.1R

$$
FLZ067-068-071>074-168-172>174-271800-
SOUTHEAST FLORIDA

CITY           SKY/WX    TMP DP  RH WIND       PRES   REMARKS
W PALM BEACH   MOSUNNY   90  69  50 NE10G20   29.95S
FT LAUDER-EXEC MOSUNNY   90  72  55 NE8       29.95S HX  97
FT LAUDERDALE  MOSUNNY   89  71  55 NE13      29.95S HX  95
POMPANO BEACH  SUNNY     90  71  53 E13       29.95F HX  96
PEMBROKE PINES SUNNY     91  71  51 E14       29.96S HX  97
OPA LOCKA      MOSUNNY   91  71  51 E14       29.95S HX  97
MIAMI          MOSUNNY   90  71  53 E12       29.95S HX  96
WEST KENDALL   SUNNY     91  72  53 E12       29.94F HX  98
HOMESTEAD      MOSUNNY   88  74  63 NE9       29.95S HX  96

STATION/POSITION SKY/WX   TEMP    WIND        PRES    WAVE   SWELL
                          AIR SEA DIR/SP/G            HT/PER HT/PER
                          (F)     (DEG/KT/KT) (MB)    (FT/S) (FT/S)
PORT EVERGLADES            85      50/  8/ 12 1014.3
VIRGINIA KEY               85 86   70/  6/  9   N/A
LAKE WORTH                 84 86   30/ 10/ 11 1014.4S
FOWEY ROCKS                84 87   60/  9/ 10 1014.6F
SETTLEMENT POINT           83      70/  2/  4 1015.1F

$$



USA.gov is the U.S. government's official web portal to all federal, state and local government web resources and services.